This demonstration page uses our WeatherBlox Daily Observations layout. Learn more.

Left ArrowRight Arrow

44.89941, -97.11507

Hourly Observations for June 29, 2022

Temp ( °F °C ) Dew Point ( °F °C ) Humidity (%) Winds ( mph kmh ) Pressure ( in mb ) Visibility ( mi km ) Precip ( " mm )
12:53 am 00:53 Clear 65 18.3 50 10 59 59 E 7 11 30.07 1018 10 16 0.00 0.00
1:53 am 01:53 Clear 63 17.2 51 10.6 65 65 E 8 13 30.06 1018 10 16 0.00 0.00
2:53 am 02:53 Clear 62 16.7 53 11.7 73 73 E 6 9 30.05 1018 10 16 0.00 0.00
3:53 am 03:53 Clear 62 16.7 53 11.7 73 73 ESE 7 11 30.04 1017 10 16 0.00 0.00
4:53 am 04:53 Clear 61 16.1 53 11.7 75 75 SE 12 19 30.04 1017 10 16 0.00 0.00
5:53 am 05:53 Sunny 60 15.6 52 11.1 75 75 SE 10 17 30.03 1017 10 16 0.00 0.00
6:53 am 06:53 Sunny 63 17.2 54 12.2 73 73 SE 14 22 29.99 1016 10 16 0.00 0.00
7:53 am 07:53 Sunny 66 18.9 56 13.3 70 70 SE 13 20 29.98 1015 10 16 0.00 0.00
8:53 am 08:53 Sunny 73 22.8 56 13.3 55 55 SSE 15 24 29.94 1014 10 16 0.00 0.00
9:53 am 09:53 Sunny 78 25.6 57 13.9 48 48 SE 22 35 29.92 1013 10 16 0.00 0.00
10:53 am 10:53 Sunny 81 27.2 59 15 47 47 SSE 21 33 29.88 1012 10 16 0.00 0.00
11:53 am 11:53 Sunny 83 28.3 59 15 44 44 SSE 21 33 29.85 1011 10 16 0.00 0.00
12:53 pm 12:53 Sunny 85 29.4 62 16.7 46 46 S 17 28 29.82 1010 10 16 0.00 0.00
1:53 pm 13:53 Sunny 90 32.2 61 16.1 38 38 S 23 37 29.76 1008 10 16 0.00 0.00
2:53 pm 14:53 Sunny 96 35.6 55 12.8 25 25 S 25 41 29.72 1006 10 16 0.00 0.00
3:53 pm 15:53 Sunny 96 35.6 53 11.7 23 23 S 31 50 29.70 1006 10 16 0.00 0.00
4:53 pm 16:53 Sunny 97 36.1 54 12.2 24 24 S 28 44 29.67 1005 10 16 0.00 0.00
5:53 pm 17:53 Sunny 96 35.6 54 12.2 24 24 SSW 28 44 29.67 1005 10 16 0.00 0.00
6:53 pm 18:53 Sunny 94 34.4 57 13.9 29 29 S 23 37 29.66 1004 10 16 0.00 0.00
7:53 pm 19:53 Sunny 90 32.2 57 13.9 33 33 SSW 21 33 29.68 1005 10 16 0.00 0.00
8:53 pm 20:53 Sunny 86 30 58 14.4 39 39 SSW 23 37 29.69 1005 10 16 0.00 0.00
9:53 pm 21:53 Mostly Clear 85 29.4 52 11.1 32 32 SSW 39 63 29.68 1005 10 16 0.00 0.00
10:53 pm 22:53 Clear 81 27.2 54 12.2 39 39 S 23 37 29.74 1007 10 16 0.00 0.00
11:53 pm 23:53 Clear 82 27.8 54 12.2 38 38 S 14 22 29.72 1006 10 16 0.00 0.00

Powered by AerisWeather